Regional Weather Roundup
Issued by NWS Upton, NY

Current Version | Previous Version | Graphics & Text | Print | Product List | Glossary Off
Versions: 1 2 3 4 5 6 7 8 9 10 11 12 13 14 15 16 17 18 19 20 21 22 23 24 25 26 27

000
ASUS41 KOKX 190005
RWROKX

Regional Weather Roundup
National Weather Service New York NY
700 PM EST SUN FEB 18 2018

Note: "FAIR" indicates few or no clouds below 12,000 feet with no
significant weather and/or obstructions to visibility.

NYZ071-072-176-178-NJZ106-104-190100-
New York City Metro Area

CITY           SKY/WX    TMP DP  RH WIND       PRES   REMARKS
Central Park   FAIR      41  22  46 N5        30.47R
Bronx Bot Gard   N/A     37  23  56 NW1       30.47R
Bronx Lehman C   N/A     41  25  52 NW3         N/A
LaGuardia Arpt MOCLDY    43  23  45 N7        30.45R
Queens College   N/A     41  25  52 N5          N/A
Kennedy Intl   MOCLDY    40  23  50 NW8       30.47R WCI  34
Breezy Point     N/A     41 N/A N/A N1          N/A
Brooklyn Coll    N/A     43  23  45 N6          N/A
Staten Island    N/A     39  27  60 SE1         N/A
Newark/Liberty FAIR      40  23  50 NE5       30.45R
Teterboro      FAIR      41  24  51 CALM      30.45R
$$

NYZ177-179-078>081-190100-
Long Island New York

CITY           SKY/WX    TMP DP  RH WIND       PRES   REMARKS
Jones Beach      N/A     41 N/A N/A N3          N/A
Wantagh          N/A     39  27  60 SW2         N/A
Hempstead      NOT AVBL
Matinecock Pt    N/A     39 N/A N/A W7          N/A  WCI  34
Farmingdale    FAIR      39  23  52 CALM      30.46R
MacArthur/ISP  MOCLDY    38  25  59 W5        30.45R WCI  34
Shirley        FAIR      34  26  72 CALM      30.46R
Mt Sinai Harb    N/A    N/A N/A N/A SW2         N/A
Westhampton    FAIR      28  23  81 CALM      30.47R
East Hampton   FAIR      30  24  79 CALM      30.46R
Southold         N/A     36  28  75 W2          N/A
Montauk          N/A     40  29  64 N6        30.46R
$$

NYZ052-065-067-190100-
Hudson Valley

CITY           SKY/WX    TMP DP  RH WIND       PRES   REMARKS
White Plains   FAIR      35  23  61 CALM      30.43R
Larchmont Harb   N/A     39 N/A N/A CALM        N/A
Croton On Huds   N/A     37 N/A N/A CALM        N/A
Somers           N/A     34  21  60 NW1         N/A
Brewster         N/A     32  23  69 NW5         N/A  WCI  27
Newburgh       CLEAR     36  23  60 NW6       30.45R WCI  31
Montgomery     FAIR      32  22  66 CALM      30.43R
Otisville        N/A     30  23  74 E1          N/A
Warwick          N/A     32  25  74 CALM        N/A
Suffern          N/A     34  21  60 N1          N/A
Poughkeepsie   FAIR      33  23  66 CALM      30.45R
Albany         MOCLDY    32  20  61 SW6       30.46R WCI  26
$$

NJZ001-105-106-008-010-013-015-019>022-104-190100-
New Jersey

CITY           SKY/WX    TMP DP  RH WIND       PRES   REMARKS
Newark/Liberty FAIR      40  23  50 NE5       30.45R
Teterboro      FAIR      41  24  51 CALM      30.45R
Caldwell       FAIR      35  24  64 CALM      30.45R
Somerville     FAIR      30  26  85 CALM      30.44R
Linden         FAIR      41  24  50 CALM      30.46R
Perth Amboy      N/A     41 N/A N/A W2          N/A
Sussex         FAIR      32  24  72 CALM      30.43R
Andover          N/A     31  26  82 CALM      30.43R
Trenton        FAIR      39  26  59 CALM      30.45R
Millville      FAIR      32  28  85 CALM      30.47R
Atlantic City  FAIR      36  28  73 CALM      30.47R
Wrightstown    FAIR      35  28  75 CALM      30.43
Toms River     FAIR      30  27  88 CALM      30.47R
Belmar         FAIR      37  26  64 S3        30.47R
$$

PAZ047>061-062-071-190100-
Eastern Pennsylvania

CITY           SKY/WX    TMP DP  RH WIND       PRES   REMARKS
Philadelphia   FAIR      43  24  47 W8        30.48R
Allentown      FAIR      35  24  64 SW6       30.44R WCI  30
Scranton       FAIR      33  24  69 SE3       30.40R
$$

CTZ002-004>006-009-010-012-RIZ004-006-007-MAZ004-011-015-190100-
Southern New England

 In CT

CITY           SKY/WX    TMP DP  RH WIND       PRES   REMARKS
Bradley Intl   MOCLDY    34  22  61 N5        30.45R WCI  30
Hartford       FAIR      37  23  56 NE3       30.46R
Danbury        FAIR      35  23  61 E6        30.44R WCI  30
Wtrbury/Oxford FAIR      33  22  63 N3        30.43R
Norwalk Harbor   N/A     39 N/A N/A SW6         N/A  WCI  35
Bridgeport     FAIR      38  25  59 CALM      30.45R
Meriden        FAIR      32  25  75 CALM      30.46R
New Haven      FAIR      35  25  66 CALM      30.45R
Chester        FAIR      36  23  60 N6        30.43R WCI  31
Groton         FAIR      37  23  56 NW6       30.45R WCI  32
Willimantic    FAIR      37  22  54 NW9       30.45R WCI  30

 In RI

CITY           SKY/WX    TMP DP  RH WIND       PRES   REMARKS
Providence     FAIR      38  25  59 W12       30.44R WCI  30
Block Island   FAIR      38  25  59 NW9       30.45R WCI  31
Westerly       FAIR      39  25  57 VRB3      30.46R

In MA

CITY           SKY/WX    TMP DP  RH WIND       PRES   REMARKS
Boston         FAIR      40  22  48 NW9       30.43R WCI  34
Worcester      FAIR      31  19  61 W6        30.40R WCI  25
Westfield      FAIR      33  22  63 NW3       30.44R
Provincetown   FAIR      30  28  92 NW6       30.42R WCI  24
Nantucket      FAIR      33  31  92 SW7       30.43R WCI  27
$$

ANZ330-335-338-340-345-350-353-355-190100-
Coastal Marine Observations


STATION/POSITION TIME  SKY/WX   TEMP    WIND        PRES    VSBY  WAVE
                                AIR SEA DIR/SP/G                  HT/PER
                 (UTC)          (F)     (DEG/KT/KT) (MB)    (MI)  (FT/S)
NY Harb Entrance 2350            42 40  310/  4/  6 1031.2          2/ 8
20 S Fire Island 2350            42 42  280/  6/  8 1031.8          2/ 8
15 E Barnegat Li 2300               41                N/A           2/ 8
Hudson Canyon    2350            43 47  340/ 10/ 12 1031.3          3/ 5
Kings Point      2336            39 36   60/  3/  5 1032.3
Execution Rocks  NOT AVBL
Western LI Sound NOT AVBL
Central LI Sound 2345            38     250/  4/  6   N/A           1
Robbins Reef     2336            42     350/  5/  5 1031.7
$$


>>>>>>>>>>>>>>>>>>>>>>>>>>>> KEY <<<<<<<<<<<<<<<<<<<<<<<<<<<
>                                                          <
>     SKY/WX - Sky Condition/Present Weather               <
>     TMP    - Temperature in Fahrenheit                   <
>     DP     - Dew Point in Fahrenheit                     <
>     RH     - Relative Humidity in Percent                <
>     WIND   - Direction (from) and Speed in MPH           <
>     PRES   - Mean Sea Level Pressure (inches of Hg)      <
>     WCI    - Wind Chill Index                            <
>     VSB    - Visibility in Miles                         <
>     HX     - Heat Index                                  <
>     TC     - Temperature in Celsius                      <
>     VRB    - Varibale Wind Direction                     <
>                                                          <
>>>>>>>>>>>>>>>>>>>>>>>>>>>> KEY <<<<<<<<<<<<<<<<<<<<<<<<<<<




USA.gov is the U.S. government's official web portal to all federal, state and local government web resources and services.